Hopkins, SC

7:20 AM EST on February 09, 2016 (GMT -0500)
McEntire Angs

Weather History for KMMT - September, 2013

Change the Weather History Date:

Sunday, September 29, 2013

  Actual Average Record
Temperature  
Mean Temperature 66 °F -  
Max Temperature 76 °F 78 °F 91 °F (2005)
Min Temperature 56 °F 58 °F 48 °F (2003)
Growing Degree Days 16 (Base 50)    
Moisture  
Dew Point 54 °F    
Average Humidity 69    
Maximum Humidity 92    
Minimum Humidity 44    
Precipitation  
Precipitation 0.00 in - - ()
Sea Level Pressure  
Sea Level Pressure 30.11 in    
Wind  
Wind Speed 5 mph (NNE)    
Max Wind Speed 9 mph    
Max Gust Speed -    
Visibility 10 miles    
Events      
Averages and records for this station are not official NWS values.
T = Trace of Precipitation, MM = Missing Value Source: NWS Daily Summary

Daily Weather History Graph

Daily Weather History Graph

Search for Another Location

Airport or City:

Trip Planner

Search our weather history database for the weather conditions in past years. The results will help you decide how hot, cold, wet, or windy it might be!

Date:

Astronomy

Sep. 29, 2013 Rise Set
Actual Time 7:16 AM EDT 7:09 PM EDT
Civil Twilight 6:51 AM EDT 7:34 PM EDT
Nautical Twilight 6:22 AM EDT 8:03 PM EDT
Astronomical Twilight 5:53 AM EDT 8:32 PM EDT
Moon 2:08 AM EDT (9/29) 3:53 PM EDT (9/29)
Length of Visible Light 12h 43m
Length of Day
11h 53m
Waning Crescent, 27% of the Moon is Illuminated
Sep 29
Waning Crescent
Oct 4
New
Oct 11
First Quarter
Oct 18
Full
Oct 26
Last Quarter

Hourly Weather History & Observations

Time (EDT) Temp. Dew Point Humidity Pressure Visibility Wind Dir Wind Speed Gust Speed Precip Events Conditions
12:58 AM 60.1 °F 51.4 °F 73% 30.16 in 10.0 mi NE 4.6 mph - N/A   Clear
1:58 AM 60.4 °F 51.8 °F 73% 30.16 in 10.0 mi NE 6.9 mph - N/A   Mostly Cloudy
2:58 AM 58.6 °F 51.8 °F 78% 30.14 in 10.0 mi NE 5.8 mph - N/A   Scattered Clouds
3:58 AM 58.8 °F 52.5 °F 80% 30.15 in 10.0 mi Variable 5.8 mph - N/A   Overcast
4:58 AM 57.9 °F 53.2 °F 84% 30.15 in 10.0 mi NNE 4.6 mph - N/A   Mostly Cloudy
5:58 AM 57.9 °F 53.8 °F 86% 30.15 in 10.0 mi North 5.8 mph - N/A   Overcast
6:58 AM 56.7 °F 54.0 °F 91% 30.16 in 10.0 mi North 3.5 mph - N/A   Mostly Cloudy
7:58 AM 57.6 °F 54.7 °F 90% 30.16 in 10.0 mi NNE 4.6 mph - N/A   Clear
8:58 AM 61.5 °F 56.3 °F 83% 30.16 in 10.0 mi Variable 4.6 mph - N/A   Mostly Cloudy
9:58 AM 66.4 °F 56.5 °F 70% 30.16 in 10.0 mi Variable 3.5 mph - N/A   Scattered Clouds
10:58 AM 69.3 °F 54.7 °F 60% 30.16 in 10.0 mi NE 8.1 mph - N/A   Scattered Clouds
11:58 AM 71.4 °F 52.0 °F 50% 30.15 in 10.0 mi NE 9.2 mph - N/A   Scattered Clouds
12:58 PM 73.8 °F 52.9 °F 48% 30.13 in 10.0 mi Variable 5.8 mph - N/A   Mostly Cloudy
1:58 PM 73.0 °F 53.6 °F 50% 30.09 in 10.0 mi Variable 5.8 mph - N/A   Mostly Cloudy
2:58 PM 75.4 °F 52.3 °F 44% 30.07 in 10.0 mi North 5.8 mph - N/A   Mostly Cloudy
3:58 PM 75.0 °F 53.1 °F 46% 30.06 in 10.0 mi NE 4.6 mph - N/A   Mostly Cloudy
4:58 PM 72.3 °F 52.9 °F 50% 30.05 in 10.0 mi Variable 4.6 mph - N/A   Mostly Cloudy
5:58 PM 71.1 °F 53.2 °F 53% 30.05 in 10.0 mi North 3.5 mph - N/A   Clear
6:58 PM 68.7 °F 54.1 °F 60% 30.06 in 10.0 mi NNE 2.3 mph - N/A   Partly Cloudy
7:58 PM 62.2 °F 56.7 °F 82% 30.07 in 10.0 mi NNW 3.5 mph - N/A   Mostly Cloudy
8:58 PM 65.5 °F 54.5 °F 68% 30.07 in 10.0 mi NE 4.6 mph - N/A   Overcast
9:58 PM 64.2 °F 53.4 °F 68% 30.07 in 10.0 mi NE 4.6 mph - N/A   Clear
10:58 PM 59.7 °F 53.2 °F 79% 30.07 in 10.0 mi NW 3.5 mph - N/A   Clear
11:58 PM 56.7 °F 54.5 °F 92% 30.06 in 10.0 mi Calm Calm - N/A   Clear